FW3258 Weather Reports


time (UTC)temp
F
wind
direction
speed
knots
gust
knots
rain 1hr
in
rain 24hr
in
rain mn
in
humidity
%
barometer
mb
20260504014431 53 258 7.8 9.6 0.00 0.00 0.00 48 1013.1
20260504013449 53 270 8.7 11.3 0.00 0.00 0.00 48 1013.2
20260504012530 53 258 5.2 5.2 0.00 0.00 0.00 48 1013.2
20260504011533 53 261 5.2 7.0 0.00 0.00 0.00 49 1013.1
20260504011447 53 258 6.1 7.0 0.00 0.00 0.00 48 1013.2
20260504010530 53 247 5.2 7.0 0.00 0.00 0.00 49 1013.2
20260504005533 53 247 4.3 8.7 0.00 0.00 0.00 48 1013.1
20260504004548 53 259 6.1 7.0 0.00 0.00 0.00 48 1013.1
20260504003531 52 243 8.7 10.4 0.00 0.00 0.00 48 1012.9
20260504002630 52 244 3.5 6.1 0.00 0.00 0.00 48 1013.0
20260504001630 53 270 6.1 8.7 0.00 0.00 0.00 48 1013.0
20260504000646 53 270 12.2 13.9 0.00 0.00 0.00 47 1012.9
20260503235647 53 247 3.5 4.3 0.00 0.00 0.00 47 1013.0
20260503234631 53 255 5.2 6.1 0.00 0.00 0.00 47 1013.0
20260503233632 53 265 6.1 8.7 0.00 0.00 0.00 47 1012.9
20260503231632 53 270 7.0 10.4 0.00 0.00 0.00 47 1013.1
20260503230630 53 270 8.7 9.6 0.00 0.00 0.00 46 1013.0
20260503225634 53 262 12.2 20.0 0.00 0.00 0.00 45 1013.2
20260503224732 53 262 13.9 14.8 0.00 0.00 0.00 45 1013.2
20260503222830 53 270 10.4 14.8 0.00 0.00 0.00 47 1013.6
20260503221831 53 247 16.5 16.5 0.00 0.00 0.00 45 1013.6
20260503220832 53 265 12.2 18.2 0.00 0.00 0.00 47 1013.2
20260503220729 53 258 15.6 17.4 0.00 0.00 0.00 46 1013.5
20260503215731 53 262 13.0 14.8 0.00 0.00 0.00 48 1013.1
20260503214731 53 247 14.8 21.7 0.00 0.00 0.00 49 1013.0
20260503213732 52 270 11.3 14.8 0.00 0.00 0.00 48 1013.1
20260503211731 53 270 11.3 14.8 0.00 0.00 0.00 48 1012.9
20260503211632 53 260 12.2 15.6 0.00 0.00 0.00 48 1012.9
20260503210730 52 270 10.4 16.5 0.00 0.00 0.00 48 1013.0
20260503203731 54 266 12.2 15.6 0.00 0.00 0.00 46 1013.1
20260503202731 54 261 12.2 16.5 0.00 0.00 0.00 45 1013.2
20260503201732 54 263 13.9 14.8 0.00 0.00 0.00 45 1013.3
20260503200731 54 270 14.8 14.8 0.00 0.00 0.00 44 1013.6
20260503195731 54 270 13.9 15.6 0.00 0.00 0.00 45 1013.5
20260503194830 54 225 13.9 13.9 0.00 0.00 0.00 44 1013.7
20260503193832 54 267 13.9 17.4 0.00 0.00 0.00 44 1013.8
20260503192830 54 256 9.6 13.0 0.00 0.00 0.00 44 1014.0
20260503191830 53 261 12.2 15.6 0.00 0.00 0.00 43 1014.0
20260503190830 53 277 8.7 9.6 0.00 0.00 0.00 42 1014.2
20260503185832 53 258 13.9 17.4 0.00 0.00 0.00 41 1014.2
20260503184831 53 283 18.2 23.5 0.00 0.00 0.00 42 1014.5
20260503183931 53 270 11.3 12.2 0.00 0.00 0.00 41 1014.5
20260503183030 53 277 15.6 19.1 0.00 0.00 0.00 41 1014.5
20260503182031 52 270 18.2 18.2 0.00 0.00 0.00 41 1014.7
20260503181032 52 270 18.2 18.2 0.00 0.00 0.00 41 1014.7
20260503175131 50 285 11.3 14.8 0.00 0.00 0.00 39 1015.0
20260503174229 50 270 10.4 12.2 0.00 0.00 0.00 39 1015.4
20260503172232 50 254 8.7 10.4 0.00 0.00 0.00 43 1015.8
20260503170230 48 270 10.4 13.0 0.00 0.00 0.00 48 1015.9
20260503150429 47 263 13.9 18.2 0.00 0.00 0.00 55 1016.6
20260503140231 44 258 13.0 13.9 0.00 0.00 0.00 67 1016.7
20260503131331 43 247 7.0 10.4 0.00 0.00 0.00 67 1016.9
20260503130331 43 270 8.7 12.2 0.00 0.00 0.00 66 1016.8
20260503110430 34 169 0.0 0.9 0.00 0.00 0.00 95 1016.1
20260503080732 33 247 1.7 1.7 0.00 0.00 0.00 94 1016.2
20260503072832 33 270 0.9 1.7 0.00 0.00 0.00 94 1016.0
20260503071929 33 270 1.7 3.5 0.00 0.00 0.00 94 1015.9
20260503070931 33 247 0.9 1.7 0.00 0.00 0.00 94 1016.1
20260503055032 33 247 0.0 0.9 0.00 0.00 0.00 94 1016.6
20260503054029 33 247 0.0 0.9 0.00 0.00 0.00 93 1016.5
20260503051030 32 180 0.0 0.0 0.00 0.00 0.00 92 1016.7
20260503050047 33 180 0.0 0.0 0.00 0.00 0.00 92 1016.9
20260503045130 33 180 0.0 0.0 0.00 0.00 0.00 91 1016.9
20260503045033 33 180 0.0 0.0 0.00 0.00 0.00 92 1016.9
20260503044030 33 180 0.0 0.0 0.00 0.00 0.00 91 1017.0
20260503043032 34 180 0.0 0.9 0.00 0.00 0.00 91 1017.1
20260503042030 34 180 0.0 0.0 0.00 0.00 0.00 90 1017.2
20260503041031 34 180 0.0 0.0 0.00 0.00 0.00 90 1017.2
20260503040031 35 180 1.7 2.6 0.00 0.00 0.00 90 1017.2
20260503035024 35 157 0.0 0.0 0.00 0.00 0.00 89 1017.3
20260503034124 35 157 0.0 0.9 0.00 0.00 0.00 87 1017.4
20260503032124 35 157 0.0 0.0 0.00 0.00 0.00 86 1017.5
20260503031123 35 157 0.0 0.0 0.00 0.00 0.00 85 1017.5
20260503025124 36 258 1.7 3.5 0.00 0.00 0.00 83 1017.7
20260503024125 37 247 3.5 4.3 0.00 0.00 0.00 83 1017.9
20260503023140 37 270 2.6 4.3 0.00 0.00 0.00 82 1017.9
20260503022222 37 255 1.7 1.7 0.00 0.00 0.00 82 1018.0
20260503021222 38 252 3.5 4.3 0.00 0.00 0.00 81 1018.0